GW0500 Weather Reports


Display with metric or nautical units.
time (UTC)temp
F
wind
direction
speed
MPH
gust
MPH
rain 1hr
in
rain 24hr
in
rain mn
in
humidity
%
barometer
mb
20260508085045 54 5 0.0 2.0 0.00 0.01 0.00 65 1019.9
20260508084556 54 35 0.0 1.0 0.00 0.01 0.00 64 1020.0
20260508084044 54 0 0.0 2.0 0.00 0.01 0.00 64 1020.0
20260508083545 54 0 0.0 2.0 0.00 0.01 0.00 65 1020.1
20260508083107 54 0 0.0 2.0 0.00 0.01 0.00 64 1020.1
20260508082548 54 0 0.0 2.0 0.00 0.01 0.00 63 1020.2
20260508082045 54 0 0.0 2.0 0.00 0.01 0.00 63 1020.2
20260508081601 54 0 0.0 2.0 0.00 0.01 0.00 64 1020.3
20260508081045 54 0 0.0 3.0 0.00 0.01 0.00 65 1020.3
20260508080544 54 360 1.0 3.0 0.00 0.01 0.00 65 1020.3
20260508080101 54 360 0.0 2.0 0.00 0.01 0.00 65 1020.3
20260508075545 54 0 0.0 2.0 0.00 0.02 0.00 65 1020.4
20260508075044 54 0 0.0 2.0 0.00 0.02 0.00 65 1020.5
20260508074603 54 0 0.0 2.0 0.00 0.02 0.00 65 1020.5
20260508074044 54 0 0.0 2.0 0.00 0.02 0.00 65 1020.5
20260508073545 54 0 0.0 2.0 0.00 0.02 0.00 66 1020.5
20260508073055 54 15 0.0 2.0 0.00 0.02 0.00 66 1020.5
20260508072544 54 0 0.0 2.0 0.00 0.02 0.00 65 1020.6
20260508072048 53 0 0.0 1.0 0.00 0.02 0.00 64 1020.6
20260508071555 54 0 0.0 1.0 0.00 0.02 0.00 64 1020.6
20260508071048 54 0 0.0 2.0 0.00 0.02 0.00 64 1020.7
20260508070549 54 0 0.0 2.0 0.00 0.02 0.00 64 1020.6
20260508070054 54 0 0.0 1.0 0.00 0.02 0.00 65 1020.6
20260508065545 54 0 0.0 3.0 0.00 0.02 0.02 62 1020.7
20260508065044 54 0 0.0 3.0 0.00 0.02 0.02 64 1020.7
20260508064556 54 0 0.0 2.0 0.00 0.02 0.02 64 1020.8
20260508064050 54 0 0.0 2.0 0.00 0.02 0.02 66 1020.7
20260508063545 54 0 0.0 2.0 0.00 0.02 0.02 64 1020.8
20260508063052 54 0 0.0 2.0 0.00 0.02 0.02 65 1020.8
20260508062544 54 0 0.0 2.0 0.00 0.02 0.02 63 1020.8
20260508062047 55 0 0.0 2.0 0.00 0.02 0.02 63 1020.8
20260508061554 55 0 0.0 2.0 0.00 0.02 0.02 64 1020.7
20260508061044 55 0 0.0 2.0 0.00 0.02 0.02 65 1020.6
20260508060545 54 16 0.0 2.0 0.00 0.02 0.02 66 1020.6
20260508060053 54 0 0.0 3.0 0.00 0.02 0.02 67 1020.6
20260508055547 54 5 0.0 3.0 0.00 0.02 0.02 66 1020.6
20260508055048 54 34 0.0 2.0 0.00 0.02 0.02 67 1020.6
20260508054551 55 23 0.0 2.0 0.00 0.02 0.02 68 1020.7
20260508054047 55 23 0.0 2.0 0.00 0.02 0.02 69 1020.7
20260508053548 55 0 0.0 1.0 0.00 0.02 0.02 68 1020.7
20260508053100 55 23 0.0 2.0 0.00 0.02 0.02 67 1020.8
20260508052547 55 0 0.0 2.0 0.00 0.02 0.02 67 1020.8
20260508052047 55 0 0.0 2.0 0.00 0.02 0.02 68 1020.8
20260508051604 55 23 0.0 3.0 0.00 0.02 0.02 70 1020.8
20260508051045 55 40 0.0 3.0 0.00 0.02 0.02 70 1020.7
20260508050545 55 0 0.0 3.0 0.00 0.02 0.02 69 1020.6
20260508050058 55 29 0.0 2.0 0.00 0.02 0.02 70 1020.6
20260508045544 56 11 0.0 1.0 0.00 0.02 0.02 72 1020.7
20260508045045 56 11 0.0 2.0 0.00 0.02 0.02 74 1020.7
20260508044555 56 0 0.0 2.0 0.00 0.02 0.02 74 1020.7
20260508044046 56 0 0.0 2.0 0.00 0.02 0.02 74 1020.7
20260508043546 56 0 0.0 2.0 0.00 0.02 0.02 73 1020.7
20260508043056 56 11 1.0 3.0 0.00 0.02 0.02 73 1020.6
20260508042545 56 0 0.0 3.0 0.00 0.02 0.02 73 1020.6
20260508042048 56 34 0.0 2.0 0.00 0.02 0.02 73 1020.6
20260508041605 56 22 0.0 2.0 0.00 0.02 0.02 74 1020.6
20260508041046 56 0 0.0 2.0 0.00 0.02 0.02 74 1020.5
20260508040548 56 22 0.0 2.0 0.00 0.02 0.02 75 1020.5
20260508040057 56 0 0.0 2.0 0.00 0.02 0.02 75 1020.4
20260508035548 56 22 0.0 2.0 0.00 0.02 0.02 75 1020.4
20260508035049 56 22 0.0 2.0 0.00 0.02 0.02 76 1020.4
20260508034600 56 22 1.0 2.0 0.00 0.02 0.02 76 1020.4
20260508034048 56 22 0.0 2.0 0.00 0.02 0.02 76 1020.4
20260508033548 56 0 0.0 1.0 0.00 0.02 0.02 74 1020.4
20260508033104 56 0 0.0 1.0 0.00 0.02 0.02 74 1020.3
20260508032641 56 0 0.0 1.0 0.00 0.02 0.02 75 1020.3
20260508032545 56 0 0.0 1.0 0.00 0.02 0.02 75 1020.3
20260508032046 57 0 0.0 1.0 0.00 0.02 0.02 76 1020.2
20260508031556 57 22 0.0 1.0 0.00 0.02 0.02 76 1020.2
20260508031044 57 0 0.0 0.0 0.00 0.02 0.02 74 1020.1
20260508030547 57 0 0.0 1.0 0.00 0.02 0.02 73 1020.0
20260508030052 57 0 0.0 1.0 0.00 0.02 0.02 73 1020.0
20260508025546 58 0 0.0 1.0 0.00 0.02 0.02 73 1019.9
20260508025045 58 0 0.0 2.0 0.00 0.02 0.02 73 1019.9
20260508024557 58 22 0.0 2.0 0.00 0.02 0.02 74 1019.9
20260508024045 59 22 0.0 2.0 0.00 0.02 0.02 75 1019.8
20260508023545 59 17 0.0 2.0 0.00 0.02 0.02 75 1019.8
20260508023056 60 0 0.0 2.0 0.00 0.02 0.02 73 1019.7
20260508022548 60 0 0.0 2.0 0.00 0.02 0.02 74 1019.7
20260508022045 60 64 0.0 2.0 0.00 0.02 0.02 74 1019.8
20260508021606 61 0 0.0 2.0 0.00 0.02 0.02 75 1019.8
20260508021045 61 0 0.0 2.0 0.00 0.02 0.02 77 1019.7
20260508020547 62 0 0.0 2.0 0.00 0.02 0.02 74 1019.7
20260508020053 62 0 0.0 1.0 0.00 0.02 0.02 74 1019.7
20260508015546 63 0 0.0 1.0 0.00 0.02 0.02 73 1019.7
20260508015044 63 0 0.0 3.0 0.00 0.02 0.02 71 1019.8
20260508014552 63 288 0.0 3.0 0.00 0.02 0.02 71 1019.8
20260508014050 64 288 1.0 3.0 0.00 0.02 0.02 70 1019.8
20260508013545 65 0 0.0 3.0 0.00 0.02 0.02 69 1019.8
20260508013051 65 0 0.0 6.0 0.00 0.02 0.02 67 1019.7
20260508012550 65 0 0.0 6.0 0.00 0.02 0.02 66 1019.8
20260508012045 66 0 2.0 6.0 0.00 0.02 0.02 64 1019.8
20260508011606 66 202 0.0 4.0 0.00 0.02 0.02 66 1019.8
20260508011045 67 178 0.0 5.0 0.00 0.02 0.02 66 1019.9
20260508010545 67 323 0.0 5.0 0.00 0.02 0.02 65 1019.9
20260508010050 68 296 1.0 5.0 0.00 0.02 0.02 64 1019.9
20260508005548 68 0 0.0 7.0 0.00 0.02 0.02 64 1019.8
20260508005044 68 188 1.0 8.0 0.00 0.02 0.02 63 1019.8
20260508004558 69 178 2.0 8.0 0.00 0.02 0.02 61 1019.8
20260508004045 69 200 2.0 8.0 0.00 0.02 0.02 61 1019.7
20260508003544 69 239 1.0 10.0 0.00 0.02 0.02 61 1019.7
20260508003053 70 243 2.0 10.0 0.00 0.02 0.02 60 1019.7
20260508002545 70 180 2.0 7.0 0.00 0.02 0.02 58 1019.7
20260508002047 70 187 0.0 6.0 0.00 0.02 0.02 58 1019.7
20260508001553 70 155 3.0 7.0 0.00 0.02 0.02 54 1019.7
20260508001044 70 140 3.0 9.0 0.00 0.02 0.02 54 1019.7
20260508000546 71 190 3.0 9.0 0.00 0.02 0.02 52 1019.7
20260508000050 71 202 3.0 8.0 0.00 0.02 0.02 53 1019.7
20260507235545 72 192 1.0 10.0 0.00 0.02 0.02 52 1019.7
20260507235045 72 181 3.0 10.0 0.00 0.02 0.02 53 1019.7
20260507234559 72 146 1.0 10.0 0.00 0.02 0.02 52 1019.6
20260507234045 72 0 3.0 10.0 0.00 0.02 0.02 52 1019.6
20260507233545 72 145 2.0 6.0 0.00 0.02 0.02 52 1019.7
20260507233052 73 167 1.0 7.0 0.00 0.02 0.02 50 1019.6
20260507232544 73 159 1.0 7.0 0.00 0.02 0.02 48 1019.6
20260507232046 73 219 3.0 9.0 0.00 0.02 0.02 51 1019.6
20260507231605 73 205 3.0 10.0 0.00 0.02 0.02 47 1019.6
20260507231046 73 164 4.0 10.0 0.00 0.02 0.02 47 1019.6
20260507230546 74 142 3.0 9.0 0.00 0.02 0.02 46 1019.6
20260507230058 74 169 1.0 11.0 0.00 0.02 0.02 47 1019.6
20260507225547 74 182 2.0 11.0 0.00 0.02 0.02 44 1019.6
20260507225049 74 242 2.0 10.0 0.00 0.02 0.02 45 1019.6
20260507224626 74 173 2.0 10.0 0.00 0.02 0.02 46 1019.5
20260507224045 74 331 2.0 8.0 0.00 0.02 0.02 48 1019.6
20260507223548 74 144 3.0 8.0 0.00 0.02 0.02 46 1019.6
20260507223056 74 153 3.0 10.0 0.00 0.02 0.02 46 1019.6
20260507222547 74 159 2.0 10.0 0.00 0.02 0.02 47 1019.7
20260507222047 75 202 1.0 5.0 0.00 0.02 0.02 46 1019.6
20260507221558 75 109 1.0 10.0 0.00 0.02 0.02 45 1019.7
20260507221146 74 315 2.0 10.0 0.00 0.02 0.02 43 1019.9
20260507221046 74 315 2.0 10.0 0.00 0.02 0.02 43 1019.9
20260507220546 75 161 1.0 8.0 0.00 0.02 0.02 47 1019.8
20260507220050 75 16 2.0 8.0 0.00 0.02 0.02 44 1019.9
20260507215545 75 153 3.0 9.0 0.00 0.02 0.02 44 1020.0
20260507215045 75 343 3.0 9.0 0.00 0.02 0.02 43 1020.1
20260507214556 75 205 2.0 7.0 0.00 0.02 0.02 45 1020.1
20260507214047 74 76 2.0 9.0 0.00 0.02 0.02 45 1020.0
20260507213551 74 173 2.0 9.0 0.00 0.02 0.02 43 1020.0
20260507213051 74 126 3.0 9.0 0.00 0.02 0.02 39 1020.1
20260507212548 74 222 4.0 12.0 0.00 0.02 0.02 41 1020.2
20260507212047 73 176 3.0 13.0 0.00 0.02 0.02 43 1020.0
20260507211551 74 134 3.0 13.0 0.00 0.02 0.02 41 1020.0
20260507211043 74 186 4.0 11.0 0.00 0.02 0.02 37 1020.0
20260507210548 74 153 3.0 11.0 0.00 0.02 0.02 43 1020.1
20260507210051 75 201 2.0 11.0 0.00 0.02 0.02 38 1020.2
20260507205549 75 146 3.0 11.0 0.00 0.03 0.02 42 1020.3
20260507205045 74 154 1.0 8.0 0.00 0.03 0.02 46 1020.3
20260507204553 74 128 3.0 8.0 0.00 0.03 0.02 45 1020.3
20260507204047 74 144 2.0 11.0 0.00 0.03 0.02 47 1020.3
20260507203547 74 119 4.0 11.0 0.00 0.03 0.02 45 1020.4
20260507203048 74 180 3.0 11.0 0.00 0.03 0.02 47 1020.3
20260507202545 75 127 3.0 8.0 0.00 0.03 0.02 44 1020.3
20260507202047 74 290 2.0 7.0 0.00 0.03 0.02 47 1020.3
20260507201600 74 121 3.0 10.0 0.00 0.03 0.02 47 1020.4
20260507201048 74 197 3.0 10.0 0.00 0.03 0.02 41 1020.5
20260507200551 74 188 1.0 9.0 0.00 0.03 0.02 41 1020.4
20260507200056 74 228 4.0 9.0 0.00 0.03 0.02 40 1020.4
20260507195547 75 129 1.0 9.0 0.00 0.03 0.02 40 1020.4
20260507195050 74 192 2.0 11.0 0.00 0.03 0.02 45 1020.5
20260507194556 74 149 3.0 12.0 0.00 0.03 0.02 43 1020.4
20260507194044 74 111 3.0 12.0 0.00 0.03 0.02 43 1020.4
20260507193547 75 173 3.0 10.0 0.00 0.03 0.02 41 1020.3
20260507193053 75 162 4.0 10.0 0.00 0.03 0.02 41 1020.4
20260507192547 75 145 2.0 7.0 0.00 0.03 0.02 42 1020.5
20260507192045 75 167 1.0 7.0 0.00 0.03 0.02 41 1020.5
20260507191551 75 164 4.0 9.0 0.00 0.03 0.02 39 1020.6
20260507191044 75 166 2.0 9.0 0.00 0.03 0.02 43 1020.6
20260507190544 76 208 1.0 6.0 0.00 0.03 0.02 44 1020.7
20260507190049 76 136 2.0 8.0 0.00 0.03 0.02 38 1020.8
20260507185544 77 209 3.0 8.0 0.00 0.03 0.02 38 1020.7
20260507185047 77 180 0.0 4.0 0.00 0.03 0.02 35 1020.7
20260507184550 77 352 0.0 7.0 0.00 0.03 0.02 26 1020.8
20260507184047 76 307 2.0 7.0 0.00 0.03 0.02 23 1021.0
20260507183550 76 205 2.0 7.0 0.00 0.03 0.02 24 1020.9
20260507183051 76 165 1.0 5.0 0.00 0.03 0.02 28 1021.0
20260507182545 76 213 1.0 6.0 0.00 0.03 0.02 25 1021.0
20260507182048 76 186 1.0 6.0 0.00 0.03 0.02 29 1021.0
20260507181556 76 197 2.0 6.0 0.00 0.03 0.02 25 1021.0
20260507181048 76 171 1.0 6.0 0.00 0.03 0.02 26 1021.0
20260507180547 76 136 1.0 5.0 0.00 0.03 0.02 25 1021.1
20260507180056 76 69 1.0 5.0 0.00 0.03 0.02 25 1021.1
20260507175548 75 360 2.0 7.0 0.00 0.03 0.02 25 1021.2
20260507175045 75 181 1.0 8.0 0.00 0.03 0.02 26 1021.1
20260507174604 75 91 1.0 8.0 0.00 0.03 0.02 26 1021.0
20260507174045 75 103 1.0 7.0 0.00 0.03 0.02 27 1021.0
20260507173544 74 240 1.0 6.0 0.00 0.03 0.02 27 1021.0
20260507173051 74 285 1.0 5.0 0.00 0.03 0.02 30 1021.0
20260507172547 74 326 0.0 4.0 0.00 0.03 0.02 34 1021.0
20260507172047 74 175 0.0 5.0 0.00 0.03 0.02 33 1020.9
20260507171603 73 153 1.0 5.0 0.00 0.03 0.02 29 1020.9
20260507171048 72 338 0.0 4.0 0.00 0.03 0.02 34 1021.0
20260507170548 72 171 1.0 7.0 0.01 0.03 0.02 32 1021.0
20260507170056 72 140 2.0 7.0 0.01 0.03 0.02 35 1021.0
20260507165548 71 211 2.0 5.0 0.01 0.03 0.02 31 1021.0
20260507165047 70 337 1.0 4.0 0.01 0.03 0.02 35 1021.0
20260507164555 70 0 0.0 4.0 0.01 0.03 0.02 41 1020.9
20260507164048 69 0 1.0 4.0 0.01 0.03 0.02 44 1020.8
20260507163547 67 15 0.0 3.0 0.01 0.03 0.02 49 1021.0
20260507163049 67 0 1.0 3.0 0.01 0.03 0.02 45 1021.1
20260507162548 66 53 0.0 2.0 0.01 0.03 0.02 56 1021.1
20260507162047 65 105 0.0 2.0 0.01 0.03 0.02 55 1021.1
20260507161552 63 44 1.0 4.0 0.01 0.03 0.02 60 1021.0
20260507161044 62 0 0.0 4.0 0.01 0.03 0.02 70 1021.1
20260507160544 62 56 0.0 2.0 0.00 0.02 0.01 71 1021.0
20260507160055 61 40 0.0 2.0 0.00 0.02 0.01 71 1021.0
20260507155546 60 40 1.0 5.0 0.00 0.03 0.01 70 1021.0
20260507155044 59 0 1.0 5.0 0.00 0.03 0.01 74 1021.0
20260507154551 58 46 0.0 5.0 0.00 0.03 0.01 73 1021.0
20260507154049 57 0 1.0 2.0 0.00 0.03 0.01 72 1021.0
20260507153548 56 38 0.0 2.0 0.00 0.03 0.01 76 1020.9
20260507153051 55 0 0.0 2.0 0.00 0.03 0.01 76 1020.9
20260507152548 55 0 0.0 2.0 0.00 0.03 0.01 75 1020.9
20260507152048 54 43 0.0 3.0 0.00 0.03 0.01 76 1020.9
20260507151555 53 44 1.0 3.0 0.00 0.03 0.01 77 1021.0
20260507151049 53 38 1.0 2.0 0.00 0.03 0.01 78 1021.0
20260507150547 52 58 0.0 2.0 0.00 0.03 0.01 79 1020.9
20260507150054 52 49 1.0 2.0 0.00 0.03 0.01 80 1020.8
20260507145544 51 0 0.0 2.0 0.00 0.03 0.01 82 1020.9
20260507145044 51 25 0.0 2.0 0.00 0.03 0.01 84 1020.9
20260507144615 50 0 0.0 1.0 0.00 0.03 0.01 85 1020.8
20260507144047 50 0 0.0 1.0 0.00 0.03 0.01 86 1020.9
20260507143544 50 0 0.0 1.0 0.00 0.03 0.01 86 1020.8
20260507143055 49 0 0.0 0.0 0.00 0.03 0.01 86 1020.9
20260507142544 49 0 0.0 0.0 0.00 0.03 0.01 85 1020.8
20260507142044 49 0 0.0 0.0 0.00 0.03 0.01 84 1020.6
20260507141612 49 0 0.0 0.0 0.00 0.03 0.01 83 1020.6
20260507141044 49 0 0.0 0.0 0.00 0.03 0.01 80 1020.6
20260507140544 49 0 0.0 0.0 0.00 0.03 0.01 79 1020.5
20260507140056 49 0 0.0 0.0 0.00 0.03 0.01 78 1020.4
20260507135551 49 0 0.0 0.0 0.00 0.03 0.01 78 1020.5
20260507135048 49 0 0.0 0.0 0.00 0.03 0.01 78 1020.5
20260507134556 49 0 0.0 0.0 0.00 0.03 0.01 77 1020.5
20260507134047 49 0 0.0 0.0 0.00 0.03 0.01 76 1020.4
20260507133548 48 0 0.0 0.0 0.00 0.03 0.01 76 1020.4
20260507133055 48 0 0.0 0.0 0.00 0.03 0.01 75 1020.5
20260507132544 49 0 0.0 0.0 0.00 0.03 0.01 75 1020.3
20260507132048 49 0 0.0 0.0 0.00 0.03 0.01 75 1020.3
20260507131552 48 0 0.0 0.0 0.00 0.03 0.01 74 1020.3
20260507131044 48 0 0.0 0.0 0.00 0.03 0.01 75 1020.2
20260507130547 49 0 0.0 0.0 0.00 0.03 0.01 74 1020.2
20260507130104 49 0 0.0 1.0 0.00 0.03 0.01 75 1020.1
20260507125548 49 0 0.0 2.0 0.00 0.03 0.01 75 1019.9
20260507125047 49 0 0.0 2.0 0.00 0.03 0.01 76 1019.9
20260507124554 49 0 0.0 2.0 0.00 0.03 0.01 76 1019.9
20260507124046 49 0 0.0 2.0 0.00 0.03 0.01 76 1019.9
20260507123544 49 360 0.0 2.0 0.00 0.03 0.01 78 1019.8
20260507123053 49 360 1.0 2.0 0.00 0.03 0.01 78 1019.8
20260507122546 49 0 0.0 2.0 0.00 0.03 0.01 78 1019.8
20260507122047 49 0 1.0 3.0 0.00 0.03 0.01 77 1019.8
20260507121552 49 327 1.0 3.0 0.00 0.03 0.01 79 1019.7
20260507121048 49 0 1.0 2.0 0.00 0.03 0.01 77 1019.8
20260507120545 49 340 0.0 2.0 0.00 0.03 0.01 78 1019.8
20260507120053 49 340 0.0 2.0 0.00 0.03 0.01 77 1019.8
20260507115548 49 340 1.0 2.0 0.00 0.03 0.01 77 1019.8
20260507115047 49 345 1.0 2.0 0.00 0.03 0.01 79 1019.8
20260507114558 48 345 1.0 2.0 0.00 0.03 0.01 78 1019.8
20260507114048 48 345 0.0 2.0 0.00 0.03 0.01 79 1019.8
20260507113544 48 0 0.0 1.0 0.00 0.03 0.01 79 1019.9
20260507113051 48 0 0.0 1.0 0.00 0.03 0.01 79 1019.9
20260507112547 49 0 0.0 2.0 0.00 0.03 0.01 79 1019.9
20260507112046 49 345 0.0 2.0 0.00 0.03 0.01 79 1019.9
20260507111551 48 0 0.0 2.0 0.00 0.03 0.01 79 1019.9
20260507111047 48 0 0.0 3.0 0.00 0.03 0.01 80 1019.8
20260507110548 48 0 1.0 3.0 0.00 0.03 0.01 80 1019.8
20260507110053 48 323 0.0 2.0 0.00 0.03 0.01 81 1019.8
20260507105548 48 360 0.0 3.0 0.00 0.03 0.01 81 1019.9
20260507105051 48 0 0.0 3.0 0.00 0.03 0.01 81 1019.9
20260507104619 48 0 0.0 3.0 0.00 0.03 0.01 80 1020.0
20260507104048 48 0 0.0 2.0 0.00 0.03 0.01 80 1020.0
20260507103548 49 0 0.0 1.0 0.00 0.03 0.01 80 1020.0
20260507103052 49 342 0.0 1.0 0.00 0.03 0.01 78 1020.1
20260507102545 49 342 0.0 1.0 0.00 0.03 0.01 78 1020.1
20260507102046 49 0 0.0 2.0 0.00 0.03 0.01 79 1020.0
20260507101552 49 0 0.0 2.0 0.00 0.03 0.01 79 1020.0
20260507101050 49 342 0.0 2.0 0.00 0.03 0.01 80 1020.0
20260507100545 49 342 1.0 2.0 0.00 0.03 0.01 80 1020.0
20260507100058 49 342 1.0 2.0 0.00 0.03 0.01 80 1020.0
20260507095547 49 342 1.0 2.0 0.00 0.03 0.01 79 1020.0
20260507095049 49 342 0.0 2.0 0.00 0.03 0.01 79 1020.2
20260507094550 49 342 0.0 2.0 0.00 0.03 0.01 78 1020.2
20260507094045 49 0 0.0 2.0 0.00 0.03 0.01 79 1020.2
20260507093548 49 342 0.0 2.0 0.00 0.03 0.01 78 1020.2
20260507093055 49 0 0.0 2.0 0.00 0.03 0.01 78 1020.2
20260507092548 49 0 0.0 2.0 0.00 0.03 0.01 78 1020.2
20260507092050 49 342 0.0 2.0 0.00 0.03 0.01 79 1020.3
20260507091558 49 0 0.0 1.0 0.00 0.03 0.01 79 1020.3
20260507091048 49 0 0.0 1.0 0.00 0.03 0.01 79 1020.3
20260507090548 49 0 0.0 0.0 0.00 0.03 0.01 79 1020.5
20260507090050 49 0 0.0 1.0 0.00 0.03 0.01 80 1020.5
20260507085547 49 0 0.0 1.0 0.00 0.03 0.01 80 1020.5